RED6 EGXW-EGPK

Flight info

Callsign RED6
Flight time N/A
Altitude 10000
Route EGXW LFA11 LFA17 LFA20T EGPK
Aircraft HAWK/M-S/L

Departure

Time N/A
Airport RAF Waddington (EGXW)

Arrival

Time 2026-04-23 18:24
Airport Glasgow Prestwick Airport (EGPK)
Time Latitude Longitude Altitude Speed Heading
2026-04-23 17:52 54.06602 -2.42292 8557 ft 368 kts 258°
2026-04-23 17:52 54.06135 -2.46201 13058 ft 313 kts 258°
2026-04-23 17:53 54.05279 -2.53677 16179 ft 370 kts 259°
2026-04-23 17:53 54.04738 -2.58569 14755 ft 472 kts 259°
2026-04-23 17:53 54.05633 -2.63925 13631 ft 531 kts 312°
2026-04-23 17:54 54.08172 -2.68701 13276 ft 546 kts 312°
2026-04-23 17:54 54.10744 -2.73497 13067 ft 547 kts 312°
2026-04-23 17:54 54.16196 -2.82560 12620 ft 544 kts 317°
2026-04-23 17:55 54.22823 -2.89345 7288 ft 564 kts 336°
2026-04-23 17:55 54.26447 -2.91893 4616 ft 564 kts 337°
2026-04-23 17:55 54.29622 -2.94254 1798 ft 467 kts 336°
2026-04-23 17:56 54.31470 -2.94948 1209 ft 459 kts 359°
2026-04-23 17:56 54.31877 -2.94925 1169 ft 454 kts
2026-04-23 17:56 54.34112 -2.94312 1665 ft 416 kts 11°
2026-04-23 17:57 54.36962 -2.93983 1385 ft 426 kts 349°
2026-04-23 17:57 54.39954 -2.96133 1689 ft 513 kts 333°
2026-04-23 17:57 54.46683 -3.02011 2517 ft 529 kts 336°
2026-04-23 17:58 54.50058 -3.04014 3598 ft 501 kts 344°
2026-04-23 17:58 54.53444 -3.05439 3655 ft 509 kts 346°
2026-04-23 17:58 54.56977 -3.06656 2770 ft 525 kts 353°
2026-04-23 17:58 54.60566 -3.07429 2974 ft 510 kts 330°
2026-04-23 17:59 54.62666 -3.12174 2871 ft 518 kts 285°
2026-04-23 17:59 54.62636 -3.17946 3082 ft 500 kts 216°
2026-04-23 17:59 54.59616 -3.20133 4399 ft 469 kts 251°
2026-04-23 17:59 54.61214 -3.24541 4080 ft 495 kts 328°
2026-04-23 18:00 54.64372 -3.26982 3528 ft 515 kts 340°
2026-04-23 18:00 54.67573 -3.29807 2865 ft 521 kts 312°
2026-04-23 18:00 54.68730 -3.34839 2270 ft 443 kts 276°
2026-04-23 18:00 54.69732 -3.39662 1765 ft 415 kts 302°
2026-04-23 18:01 54.70637 -3.44111 1715 ft 379 kts 287°
2026-04-23 18:01 54.71629 -3.48312 1683 ft 367 kts 294°
2026-04-23 18:01 54.72646 -3.52189 1664 ft 346 kts 294°
2026-04-23 18:01 54.73663 -3.56052 1796 ft 360 kts 294°
2026-04-23 18:02 54.74369 -3.58738 1832 ft 391 kts 294°
2026-04-23 18:02 54.75899 -3.64509 2033 ft 364 kts 294°
2026-04-23 18:02 54.76586 -3.68629 2110 ft 347 kts 279°
2026-04-23 18:02 54.76979 -3.72638 2177 ft 330 kts 281°
2026-04-23 18:03 54.77225 -3.76573 2118 ft 339 kts 277°
2026-04-23 18:03 54.77585 -3.81018 2260 ft 414 kts 277°
2026-04-23 18:03 54.77936 -3.86103 2132 ft 384 kts 277°
2026-04-23 18:03 54.78255 -3.90649 2033 ft 373 kts 277°
2026-04-23 18:04 54.78575 -3.95090 1977 ft 371 kts 277°
2026-04-23 18:04 54.78926 -3.99585 1958 ft 380 kts 277°
2026-04-23 18:04 54.79291 -4.04152 2016 ft 389 kts 277°
2026-04-23 18:04 54.79695 -4.08807 2085 ft 387 kts 279°
2026-04-23 18:05 54.80106 -4.13269 1974 ft 373 kts 279°
2026-04-23 18:05 54.80532 -4.17811 1906 ft 392 kts 279°
2026-04-23 18:05 54.80957 -4.22546 1857 ft 384 kts 279°
2026-04-23 18:05 54.81360 -4.27049 1851 ft 374 kts 278°
2026-04-23 18:06 54.81761 -4.31483 1860 ft 385 kts 279°
2026-04-23 18:06 54.82177 -4.36198 1848 ft 403 kts 278°
2026-04-23 18:06 54.82626 -4.41008 1696 ft 401 kts 279°
2026-04-23 18:06 54.83090 -4.45695 1661 ft 389 kts 280°
2026-04-23 18:07 54.83589 -4.50248 1717 ft 378 kts 281°
2026-04-23 18:07 54.84104 -4.54769 1854 ft 392 kts 282°
2026-04-23 18:07 54.84721 -4.59524 1884 ft 413 kts 282°
2026-04-23 18:07 54.85386 -4.64285 1818 ft 390 kts 284°
2026-04-23 18:08 54.85847 -4.67318 1803 ft 378 kts 285°
2026-04-23 18:08 54.86777 -4.73018 1816 ft 370 kts 286°
2026-04-23 18:08 54.87497 -4.77412 1740 ft 387 kts 285°
2026-04-23 18:08 54.88248 -4.81943 1710 ft 391 kts 286°
2026-04-23 18:09 54.89005 -4.86491 1663 ft 395 kts 286°
2026-04-23 18:09 54.89758 -4.90936 1671 ft 374 kts 287°
2026-04-23 18:09 54.90503 -4.95181 1796 ft 360 kts 287°
2026-04-23 18:09 54.91297 -4.99311 2084 ft 359 kts 297°
2026-04-23 18:10 54.93170 -5.02006 2681 ft 361 kts 343°
2026-04-23 18:10 54.95589 -5.01493 2979 ft 362 kts 30°
2026-04-23 18:10 54.96999 -4.97959 2865 ft 366 kts 78°
2026-04-23 18:10 54.97238 -4.93621 2884 ft 361 kts 85°
2026-04-23 18:11 54.97414 -4.89099 2885 ft 381 kts 86°
2026-04-23 18:11 54.97510 -4.86023 2950 ft 387 kts 87°
2026-04-23 18:11 54.97535 -4.81412 3514 ft 380 kts 88°
2026-04-23 18:11 54.97544 -4.76755 3420 ft 391 kts 90°
2026-04-23 18:12 54.97513 -4.71981 3314 ft 395 kts 91°
2026-04-23 18:12 54.97470 -4.67233 3608 ft 387 kts 91°
2026-04-23 18:12 54.97408 -4.62568 3947 ft 388 kts 91°
2026-04-23 18:12 54.97322 -4.57618 4079 ft 415 kts 92°
2026-04-23 18:13 54.97387 -4.52698 4227 ft 404 kts 80°
2026-04-23 18:13 54.98315 -4.48080 4337 ft 410 kts 66°
2026-04-23 18:13 54.99476 -4.43393 4107 ft 425 kts 66°
2026-04-23 18:13 55.00556 -4.38955 3812 ft 373 kts 65°
2026-04-23 18:14 55.01771 -4.34782 3562 ft 392 kts 57°
2026-04-23 18:14 55.03137 -4.30924 3295 ft 358 kts 58°
2026-04-23 18:14 55.04531 -4.27129 3126 ft 402 kts 57°
2026-04-23 18:14 55.05977 -4.23279 3114 ft 365 kts 57°
2026-04-23 18:15 55.07418 -4.19416 3070 ft 391 kts 56°
2026-04-23 18:15 55.08880 -4.15534 3186 ft 374 kts 56°
2026-04-23 18:15 55.10343 -4.11808 3542 ft 384 kts 54°
2026-04-23 18:15 55.11903 -4.07976 3801 ft 372 kts 54°
2026-04-23 18:16 55.13635 -4.04781 4117 ft 363 kts 35°
2026-04-23 18:16 55.15993 -4.02978 3993 ft 387 kts 11°
2026-04-23 18:16 55.18776 -4.03270 4173 ft 423 kts 344°
2026-04-23 18:17 55.24190 -4.06801 4187 ft 409 kts 339°
2026-04-23 18:17 55.26936 -4.08642 4112 ft 412 kts 339°
2026-04-23 18:17 55.29421 -4.10321 3896 ft 379 kts 338°
2026-04-23 18:17 55.31919 -4.12037 3812 ft 375 kts 338°
2026-04-23 18:18 55.34278 -4.13672 3538 ft 359 kts 338°
2026-04-23 18:18 55.36616 -4.15459 3433 ft 364 kts 326°
2026-04-23 18:18 55.38210 -4.18980 3401 ft 384 kts 300°
2026-04-23 18:18 55.39497 -4.23086 3091 ft 368 kts 298°
2026-04-23 18:19 55.40741 -4.27079 2712 ft 391 kts 298°
2026-04-23 18:19 55.42054 -4.31290 2247 ft 384 kts 298°
2026-04-23 18:19 55.43336 -4.35471 2274 ft 405 kts 298°
2026-04-23 18:19 55.44610 -4.39680 2144 ft 372 kts 297°
2026-04-23 18:20 55.45778 -4.43661 1809 ft 371 kts 297°
2026-04-23 18:20 55.46981 -4.47832 1619 ft 365 kts 298°
2026-04-23 18:20 55.48240 -4.51687 1255 ft 364 kts 301°
2026-04-23 18:20 55.49554 -4.55521 1017 ft 374 kts 301°
2026-04-23 18:21 55.50870 -4.59341 957 ft 351 kts 301°
2026-04-23 18:21 55.52112 -4.62898 1134 ft 325 kts 303°
2026-04-23 18:21 55.51361 -4.64862 1767 ft 251 kts 173°
2026-04-23 18:21 55.50169 -4.62429 1172 ft 255 kts 112°
2026-04-23 18:22 55.49552 -4.59938 1037 ft 204 kts 115°
2026-04-23 18:22 55.48996 -4.57804 847 ft 177 kts 115°
2026-04-23 18:22 55.48518 -4.55991 786 ft 151 kts 114°
2026-04-23 18:22 55.48090 -4.54401 737 ft 141 kts 109°
2026-04-23 18:23 55.48434 -4.52953 702 ft 164 kts
2026-04-23 18:23 55.49982 -4.56693 234 ft 204 kts 301°
2026-04-23 18:24 55.51114 -4.59924 35 ft 57 kts 302°
2026-04-23 18:24 55.51155 -4.60039 35 ft 6 kts 301°
2026-04-23 18:24 55.51180 -4.60113 35 ft 13 kts 301°
2026-04-23 18:25 55.51335 -4.60571 32 ft 20 kts 298°
2026-04-23 18:25 55.51427 -4.60864 29 ft 29 kts 303°
2026-04-23 18:25 55.51546 -4.61185 26 ft 16 kts 302°
2026-04-23 18:25 55.51560 -4.61226 26 ft 1 kts 292°
2026-04-23 18:26 55.51561 -4.61265 27 ft 0 kts 261°
2026-04-23 18:26 55.51565 -4.61298 27 ft 5 kts 301°
2026-04-23 18:26 55.51579 -4.61337 27 ft 1 kts 304°
2026-04-23 18:27 55.51600 -4.61390 27 ft 3 kts 301°
2026-04-23 18:27 55.51609 -4.61461 27 ft 6 kts 257°
2026-04-23 18:27 55.51586 -4.61511 27 ft 8 kts 205°
2026-04-23 18:27 55.51501 -4.61499 28 ft 25 kts 155°
2026-04-23 18:28 55.51390 -4.61321 29 ft 17 kts 124°
2026-04-23 18:28 55.51301 -4.61073 30 ft 14 kts 121°
2026-04-23 18:28 55.51240 -4.60893 32 ft 12 kts 121°
2026-04-23 18:28 55.51195 -4.60760 32 ft 24 kts 122°
2026-04-23 18:29 55.51150 -4.60635 33 ft 7 kts 122°
2026-04-23 18:29 55.51100 -4.60488 34 ft 13 kts 120°
2026-04-23 18:29 55.51054 -4.60351 35 ft 17 kts 121°
2026-04-23 18:29 55.51002 -4.60201 36 ft 10 kts 121°
2026-04-23 18:30 55.50954 -4.60060 37 ft 9 kts 122°
2026-04-23 18:30 55.50907 -4.59928 38 ft 10 kts 121°
2026-04-23 18:30 55.50893 -4.59888 38 ft 12 kts 121°
2026-04-23 18:30 55.50850 -4.59764 39 ft 5 kts 122°
2026-04-23 18:31 55.50815 -4.59666 39 ft 8 kts 122°
2026-04-23 18:31 55.50778 -4.59559 40 ft 14 kts 121°
2026-04-23 18:31 55.50753 -4.59488 40 ft 0 kts 122°
2026-04-23 18:31 55.50737 -4.59443 41 ft 4 kts 122°
2026-04-23 18:32 55.50705 -4.59354 41 ft 3 kts 122°
2026-04-23 18:32 55.50689 -4.59317 42 ft 3 kts 143°
2026-04-23 18:32 55.50676 -4.59309 42 ft 2 kts 189°
2026-04-23 18:32 55.50667 -4.59317 42 ft 4 kts 227°
2026-04-23 18:33 55.50653 -4.59367 42 ft 1 kts 246°
2026-04-23 18:33 55.50647 -4.59390 42 ft 0 kts 248°
2026-04-23 18:33 55.50644 -4.59403 42 ft 2 kts 256°
2026-04-23 18:33 55.50644 -4.59419 41 ft 1 kts 297°
2026-04-23 18:34 55.50646 -4.59425 41 ft 2 kts 315°
2026-04-23 18:34 55.50649 -4.59429 41 ft 0 kts 324°
2026-04-23 18:35 55.50650 -4.59430 41 ft 0 kts 326°